Weather Roundup
Issued by NWS Chicago, IL

Home | Current Version | Previous Version | Text Only | Print | Product List | Glossary Off
Versions: 1 2 3 4 5 6 7 8 9 10 11 12 13 14 15 16 17 18 19 20 21 22 23 24 25 26 27 28 29 30 31 32 33 34 35 36 37 38 39 40 41 42 43 44 45 46 47 48 49 50

000
NZUS59 KLOT 291208
HRRLOT

CHICAGO AREA WEATHER ROUNDUP
NATIONAL WEATHER SERVICE CHICAGO/ROMEOVILLE IL
700 AM CDT SUN MAR 29 2015

NOTE: "FAIR" INDICATES FEW OR NO CLOUDS BELOW 12,000 FEET WITH NO
SIGNIFICANT WEATHER AND/OR OBSTRUCTIONS TO VISIBILITY.

* THESE STATIONS ARE NOT UNDER NWS QUALITY CONTROL. THEY ALSO MAY NOT
  REPORT WEATHER SUCH AS PRECIPITATION OR FOG.

ILZ005-006-012>014-019>023-291300-
NORTHEAST ILLINOIS

CITY           SKY/WX    TMP DP  RH WIND       PRES   REMARKS
OHARE          MOCLDY    31  15  52 S16       30.13S WCI  20
6HR MIN TEMP:  23; 6HR MAX TEMP:  31;

MIDWAY         MOCLDY    32  16  51 S12       30.14F WCI  23
6HR MIN TEMP:  28; 6HR MAX TEMP:  32;

AURORA         PTCLDY    29  17  61 S14       30.14R WCI  18
6HR MIN TEMP:  24; 6HR MAX TEMP:  29;

LANSING*       PTCLDY    28  17  61 S13       30.17F WCI  18
JOLIET*        PTCLDY    32  19  59 S12       30.16R WCI  23
WAUKEGAN       MOCLDY    30  15  53 S17G24    30.11R WCI  18
6HR MIN TEMP:  25; 6HR MAX TEMP:  30;

DUPAGE AIRPORT MOCLDY    30  17  58 S16       30.13R WCI  19
6HR MIN TEMP:  23; 6HR MAX TEMP:  30;

WHEELING       MOCLDY    31  14  49 S14       30.14S WCI  21
6HR MIN TEMP:  24; 6HR MAX TEMP:  31;

KANKAKEE*      PTCLDY    28  19  66 S13G20    30.17F WCI  18
MORRIS*        PTCLDY    28  19  71 S10       30.14S WCI  18
LEWIS AIRPORT* PTCLDY    28  19  66 S12       30.15R WCI  18
NORTHERLY IS     N/A     31  15  52 S10         N/A  WCI  22
$$

WIZ051-052-058>065-066-070>072-291300-
SOUTHEAST WISCONSIN

CITY           SKY/WX    TMP DP  RH WIND       PRES   REMARKS
MILWAUKEE      MOCLDY    30  14  51 SW9       30.09R WCI  22
6HR MIN TEMP:  25; 6HR MAX TEMP:  30;

KENOSHA*       MOCLDY    31  16  54 SW16G24   30.10R WCI  20
RACINE*        MOCLDY    30  14  51 S12G21    30.11R WCI  20
BURLINGTON     MOCLDY    29  16  59 S10       30.09S WCI  19
WAUKESHA       CLEAR     27  16  63 S12G23    30.28R WCI  16
WEST BEND      PTCLDY    30  14  51 S9        30.05R WCI  22
$$

INZ001>003-010>013-019-020-291300-
NORTHWEST INDIANA

CITY           SKY/WX    TMP DP  RH WIND       PRES   REMARKS
GARY*          MOCLDY    32  12  43 S14       30.17F WCI  22
MICHIGAN CITY* NOT AVBL
RENSSELAER*    NOT AVBL
VALPARAISO     PTCLDY    27  17  66 S8        30.18F WCI  19
$$

LMZ740>746-291300-
SOUTHERN LAKE MICHIGAN

STATION/POSITION TIME  SKY/WX   TEMP WIND        PRES    VSBY
                                AIR  DIR/SP/G
                 (UTC)          (F)  (DEG/KT/KT) (MB)    (MI)
HARRISON CRIB    1100            31  180/ 25/ 27   N/A
BURNHAM HARBOR   1200            31  180/ 11/ 16   N/A
CALUMET HARBOR   NOT AVBL
BURNS HARBOR     1100            29  170/ 11/ 16 1022.4F
MICHIGAN CITY    1100            28  150/ 12/ 15   N/A
$$

ABBREVIATIONS USED IN REMARKS
   TC - TEMPERATURE IN CELSIUS
  WCI - WIND CHILL INDEX
   HX - HEAT INDEX
  VSB - VISIBILITY
$$



USA.gov is the U.S. government's official web portal to all federal, state and local government web resources and services.